Observations for Trim Market St
| Time | AQI | Temp °C | Hum % | Pres Pa | CO μg/m³ | H₂S μg/m³ | NO μg/m³ | NO₂ μg/m³ | O₃ μg/m³ | SO₂ μg/m³ | PM1 μg/m³ | PM2.5 μg/m³ | PM10 μg/m³ |
|---|---|---|---|---|---|---|---|---|---|---|---|---|---|
| Wednesday 12 August 2026 | |||||||||||||
| 03:36 | 2 | 19.3 | 65 | 57,284 | 0.04 | 0 | 1.26 | 13.26 | 65.32 | 0 | 2.14 | 4.76 | 7.53 |
| 03:35 | 2 | 19.3 | 65 | 57,292 | 0.05 | 0 | 1.31 | 14.04 | 64.11 | 0 | 2.14 | 4.27 | 6.22 |
| 03:34 | 2 | 19.3 | 65 | 57,303 | 0.05 | 0 | 1.32 | 14.32 | 61.05 | 0 | 2.14 | 4.27 | 7.53 |
| 03:33 | 2 | 19.3 | 65 | 57,307 | 0.04 | 0 | 1.3 | 17.63 | 59.49 | 0 | 2.85 | 4.27 | 6.22 |
| 03:32 | 2 | 19.3 | 65 | 57,315 | 0.05 | 0 | 1.33 | 13.64 | 63.41 | 0 | 1.43 | 4.27 | 6.22 |
| 03:30 | 2 | 19.3 | 65 | 57,338 | 0.05 | 0 | 1.3 | 13.5 | 68.12 | 0 | 2.14 | 4.27 | 7.53 |
| 03:26 | 2 | 19.3 | 65 | 57,388 | 0.05 | 0 | 1.27 | 17.98 | 60.4 | 0 | 1.43 | 3.3 | 6.21 |
| 03:25 | 2 | 19.3 | 65 | 57,393 | 0.04 | 0 | 1.25 | 12.5 | 66.27 | 0 | 2.14 | 3.3 | 4.9 |
| 03:23 | 2 | 19.3 | 65 | 57,403 | 0.05 | 0 | 1.25 | 12.16 | 59.18 | 0 | 1.43 | 3.8 | 5.55 |
| 03:17 | 2 | 19.3 | 64 | 57,430 | 0.05 | 0 | 1.27 | 11.82 | 62.17 | 0 | 1.43 | 4.3 | 6.87 |
| 03:10 | 2 | 19.4 | 64 | 57,441 | 0.04 | 0 | 1.25 | 12.09 | 67.85 | 0 | 1.43 | 3.32 | 4.89 |
| 03:09 | 2 | 19.4 | 64 | 57,441 | 0.04 | 0 | 1.25 | 14.11 | 59.42 | 0 | 2.14 | 3.82 | 5.55 |
| 03:08 | 2 | 19.4 | 64 | 57,445 | 0.04 | 0 | 1.25 | 13.26 | 56.51 | 0 | 1.43 | 3.32 | 4.89 |
| 03:07 | 2 | 19.4 | 64 | 57,446 | 0.03 | 0 | 1.26 | 14.93 | 61.48 | 0 | 2.14 | 3.32 | 4.89 |
| 03:06 | 2 | 19.4 | 64 | 57,451 | 0.05 | 0 | 1.28 | 11.91 | 53.94 | 0 | 1.43 | 2.82 | 4.23 |
| 03:05 | 2 | 19.4 | 64 | 57,449 | 0.04 | 0 | 1.27 | 12.3 | 67.95 | 0 | 2.14 | 3.31 | 5.55 |
| 03:04 | 2 | 19.4 | 64 | 57,452 | 0.03 | 0 | 1.25 | 24.99 | 59.53 | 0 | 1.43 | 2.82 | 4.23 |
| 03:03 | 2 | 19.4 | 64 | 57,464 | 0.03 | 0 | 1.26 | 12.29 | 58.31 | 0 | 1.43 | 3.32 | 4.89 |
| 03:02 | 2 | 19.4 | 64 | 57,473 | 0.05 | 0 | 1.25 | 27.45 | 58.81 | 0 | 1.43 | 2.83 | 4.22 |
| 03:01 | 2 | 19.4 | 64 | 57,482 | 0.03 | 0 | 1.24 | 12.91 | 62.98 | 0 | 2.14 | 4.81 | 6.87 |